Dewpoint
62 68 71 73 72 72 71 71 72 72 73 74 73 73 73 73 73 73 74 73 73 73 72 72 73 73 73 71 72 71 71 70 69 67 68 68 70 69 69 70 70 67 70
64 69 71 72 72 72 71 71 72 73 73 74 73 73 73 73 73 73 73 73 73 73 71 71 73 72 71 71 71 70 70 70 70 69 69 68 69 69 68 69 69 68 69
66 69 70 71 72 71 71 72 72 73 73 73 73 73 73 73 73 73 73 73 73 72 71 71 71 71 70 70 70 70 70 69 69 69 69 67 67 69 68 68 69 69 69
67 69 70 71 71 71 71 71 72 73 73 73 73 73 73 73 73 73 73 73 72 72 71 71 71 71 70 70 70 70 70 70 69 69 66 65 67 69 69 69 69 69 68
68 69 70 71 71 71 71 71 72 72 72 72 72 73 73 73 73 73 72 72 72 72 72 71 71 71 71 70 70 70 70 69 68 66 66 66 65 67 68 69 69 68 67
67 68 70 70 70 71 71 71 72 72 72 72 72 73 73 73 73 72 71 71 72 72 72 71 71 70 69 69 69 69 68 68 67 64 65 67 67 68 68 68 68 68 67
67 68 70 69 70 71 72 71 71 71 71 71 72 72 72 72 72 71 71 71 71 72 72 71 70 69 68 68 68 67 67 67 66 66 64 65 67 68 68 68 68 67 67
67 69 70 70 70 70 71 71 70 70 70 71 71 71 72 71 70 70 70 70 71 71 71 70 69 68 68 67 67 66 66 66 65 66 65 64 68 68 68 67 67 66 66
68 68 70 71 70 70 69 69 69 69 69 70 70 70 70 69 69 69 69 70 70 70 69 69 68 68 67 67 66 66 65 66 65 65 64 64 67 67 67 66 65 66 65
66 68 69 70 69 70 71 68 68 68 68 69 69 69 69 68 68 68 68 69 69 69 69 68 67 67 66 66 66 65 65 65 65 65 64 64 67 66 66 65 64 64 64
65 67 68 68 68 69 69 70 69 68 68 68 69 68 68 68 68 67 66 68 69 68 68 68 67 66 65 65 65 64 65 64 66 66 67 66 67 66 66 65 64 64 63
62 65 66 66 67 67 67 68 70 70 69 70 70 71 70 70 69 66 65 66 68 67 67 67 67 66 65 64 65 65 64 63 64 64 65 65 67 66 66 66 65 64 63
60 62 65 65 66 67 67 67 69 68 69 69 69 69 70 69 69 67 66 64 66 67 66 65 66 65 66 65 65 65 64 64 63 64 66 65 66 66 65 65 65 64 64
61 60 64 66 66 66 66 66 67 67 67 68 68 70 69 67 67 68 65 65 64 63 66 65 64 67 66 65 65 64 63 63 65 66 65 64 65 66 65 65 65 64 64
61 62 63 65 66 65 66 67 68 67 67 67 68 69 69 67 67 67 66 64 62 63 64 64 65 64 64 65 64 63 62 63 64 64 65 63 63 64 65 64 64 64 64
59 62 64 64 65 66 65 66 67 67 67 67 67 68 69 68 67 66 66 65 64 63 63 64 64 64 65 64 64 63 62 62 63 63 64 64 62 63 65 65 64 64 63
54 59 63 64 65 66 66 66 67 66 67 66 66 67 68 68 68 66 66 65 63 64 65 65 65 63 64 64 63 63 61 62 62 61 62 63 63 61 62 64 64 64 63
39 42 55 63 65 65 65 65 66 66 66 66 66 66 67 67 67 67 65 65 65 64 65 65 64 62 63 63 63 62 60 61 61 61 62 62 62 60 62 62 63 63 63
35 38 44 61 65 65 66 65 66 66 66 66 66 66 67 68 68 67 66 66 65 64 64 64 64 63 61 63 62 62 61 59 62 62 62 62 63 62 63 61 61 62 62
37 38 43 47 62 65 66 66 66 66 66 66 66 65 66 65 68 68 67 66 65 64 64 64 63 62 62 62 61 61 61 61 62 62 62 61 63 63 62 61 60 59 60
39 40 43 43 53 65 65 65 64 63 65 66 66 65 64 65 66 67 66 66 65 64 63 63 62 61 61 62 61 61 60 61 61 62 62 60 61 62 62 61 59 57 57
38 43 45 44 46 59 63 64 65 64 64 65 65 65 64 65 65 66 66 66 65 65 63 63 62 61 61 62 60 58 56 57 59 59 60 61 61 60 60 60 60 58 55
40 44 43 47 48 53 64 65 66 66 66 64 64 64 65 64 65 65 65 66 65 64 63 63 63 62 60 61 61 58 54 54 56 58 59 59 60 59 59 59 59 58 57
45 42 51 54 55 52 65 65 64 63 61 63 65 65 66 66 66 66 66 65 65 64 64 63 64 63 61 59 61 60 58 56 52 53 57 59 59 58 60 59 58 58 57
47 48 55 59 61 59 63 65 64 63 65 65 65 66 66 67 66 66 65 65 65 64 64 64 63 62 62 61 60 60 58 56 56 53 52 54 57 58 58 58 58 58 57
50 54 58 58 58 61 62 63 64 64 60 61 61 63 64 64 65 65 65 65 65 64 64 64 63 62 62 62 61 61 59 56 54 54 53 54 54 56 57 58 58 58 57
Lifted_Index
-4 -5 -4 -4 -4 -4 -3 -3 -3 -4 -4 -5 -4 -4 -4 -4 -4 -5 -5 -4 -5 -4 -4 -4 -4 -4 -4 -4 -4 -4 -4 -4 -3 -3 -2 -2 -2 -2 -3 -3 -3 -3 -3
-5 -5 -5 -4 -4 -4 -3 -3 -3 -4 -5 -5 -5 -4 -4 -4 -5 -5 -5 -4 -4 -4 -4 -4 -4 -4 -4 -4 -4 -4 -3 -3 -3 -3 -3 -3 -2 -2 -2 -3 -3 -3 -3
-5 -5 -5 -4 -4 -4 -3 -3 -3 -4 -5 -5 -5 -5 -4 -5 -5 -5 -5 -4 -4 -4 -4 -3 -4 -3 -3 -3 -4 -3 -3 -3 -3 -4 -4 -4 -3 -3 -2 -2 -3 -3 -3
-5 -5 -5 -4 -4 -4 -4 -4 -4 -4 -5 -5 -5 -5 -5 -5 -5 -5 -4 -4 -4 -4 -4 -3 -3 -3 -3 -3 -4 -4 -3 -3 -3 -4 -4 -4 -4 -3 -3 -3 -3 -3 -3
-5 -5 -4 -4 -4 -4 -4 -4 -4 -4 -4 -4 -5 -5 -5 -5 -5 -4 -4 -4 -4 -4 -4 -4 -3 -3 -3 -3 -4 -4 -4 -3 -4 -4 -4 -4 -4 -4 -3 -3 -3 -3 -3
-5 -4 -4 -4 -4 -4 -4 -4 -4 -4 -4 -4 -5 -5 -5 -5 -4 -4 -4 -4 -4 -4 -4 -4 -3 -3 -2 -3 -4 -4 -3 -3 -3 -4 -4 -4 -4 -4 -3 -3 -3 -3 -3
-5 -4 -4 -4 -4 -4 -4 -4 -4 -4 -4 -4 -4 -5 -5 -4 -4 -4 -4 -4 -4 -4 -4 -3 -3 -2 -2 -2 -3 -3 -3 -3 -3 -3 -3 -4 -4 -4 -3 -3 -3 -2 -2
-4 -5 -5 -4 -4 -4 -4 -4 -4 -4 -4 -4 -4 -4 -4 -4 -3 -3 -3 -3 -4 -4 -3 -3 -2 -1 -1 -2 -2 -2 -2 -2 -3 -3 -3 -3 -4 -4 -4 -3 -2 -2 -1
-4 -4 -5 -5 -5 -4 -4 -4 -4 -3 -3 -4 -4 -4 -4 -3 -2 -2 -2 -3 -3 -3 -3 -2 -2 -1 -1 -1 -2 -2 -2 -2 -3 -3 -3 -3 -4 -4 -3 -3 -2 -1 -1
-3 -4 -4 -4 -4 -5 -5 -4 -4 -3 -3 -3 -4 -4 -4 -3 -2 -2 -2 -2 -2 -2 -2 -2 -2 -1 -1 -1 -1 -1 -1 -2 -2 -3 -3 -3 -3 -3 -3 -2 -2 -1 -0
-3 -3 -3 -3 -4 -4 -5 -5 -4 -4 -4 -4 -4 -4 -4 -3 -3 -2 -1 -1 -2 -2 -2 -2 -1 -1 -1 -1 -1 -1 -2 -2 -2 -3 -3 -2 -2 -2 -2 -2 -1 -1 -0
-2 -2 -2 -3 -3 -3 -4 -5 -5 -5 -4 -4 -4 -4 -4 -4 -3 -2 -1 -1 -1 -2 -1 -1 -1 -1 -1 -2 -2 -2 -2 -2 -2 -2 -2 -2 -2 -2 -2 -2 -1 -1 -0
-1 -2 -2 -2 -3 -3 -4 -5 -5 -5 -5 -5 -5 -5 -4 -4 -3 -2 -2 -1 -1 -1 -1 -1 -1 -2 -2 -2 -2 -2 -2 -2 -2 -2 -1 -1 -2 -2 -2 -2 -1 -1 -1
-2 -2 -3 -3 -3 -3 -4 -4 -5 -5 -5 -5 -5 -5 -5 -4 -4 -3 -2 -1 -0 -0 -1 -1 -1 -2 -2 -2 -2 -2 -1 -1 -1 -1 -1 -1 -1 -1 -2 -2 -1 -1 -1
-3 -3 -3 -3 -3 -3 -4 -4 -5 -5 -5 -5 -5 -5 -5 -5 -4 -4 -3 -1 -0 -0 -1 -1 -1 -1 -1 -2 -2 -1 -1 -1 -1 -0 0 0 -0 -1 -1 -2 -2 -1 -1
-3 -4 -4 -4 -4 -4 -4 -4 -5 -5 -5 -5 -5 -5 -5 -5 -4 -4 -3 -2 -1 -1 -1 -1 -1 -1 -1 -1 -1 -1 -1 -0 0 1 1 1 0 -0 -1 -1 -1 -1 -1
-0 -1 -3 -4 -5 -5 -4 -4 -5 -5 -5 -5 -5 -5 -5 -5 -5 -4 -4 -3 -3 -2 -1 -1 -1 -0 -1 -1 -1 -1 -1 -0 1 1 2 1 0 0 -0 -1 -1 -1 -1
4 3 -0 -3 -5 -5 -5 -5 -5 -5 -5 -5 -5 -5 -5 -6 -6 -5 -5 -4 -4 -3 -2 -2 -1 -0 -1 -1 -1 -1 -1 -1 0 1 1 1 0 -0 -0 -0 -1 -1 -0
7 6 4 -0 -4 -5 -5 -5 -5 -5 -5 -6 -5 -5 -5 -6 -6 -6 -5 -4 -4 -4 -3 -2 -2 -1 -1 -1 -1 -1 -1 -1 -1 -0 1 1 0 -0 -0 -0 0 0 0
8 7 6 3 -1 -4 -6 -6 -5 -5 -5 -5 -5 -5 -5 -6 -6 -6 -5 -4 -4 -4 -4 -3 -3 -2 -1 -1 -1 -0 -0 -0 -1 -0 0 1 0 -0 -0 0 0 1 1
8 8 7 6 2 -3 -6 -6 -6 -5 -5 -5 -5 -5 -5 -4 -5 -5 -5 -4 -4 -4 -4 -3 -3 -3 -2 -1 -1 -0 -0 -0 -0 -0 0 1 1 1 0 0 1 1 2
8 7 6 6 3 -1 -5 -6 -6 -6 -5 -5 -5 -5 -4 -4 -4 -4 -4 -4 -4 -3 -3 -4 -3 -3 -2 -2 -1 -1 -1 -0 -0 0 0 0 1 1 1 1 1 2 2
8 7 5 4 3 -0 -4 -6 -6 -6 -6 -6 -6 -5 -5 -4 -4 -4 -4 -4 -3 -3 -3 -4 -3 -3 -2 -2 -1 -1 -1 -1 -0 0 1 1 1 1 1 1 2 2 2
7 6 4 2 1 -1 -4 -6 -6 -6 -7 -7 -6 -6 -5 -5 -4 -4 -4 -3 -3 -3 -3 -4 -4 -3 -3 -2 -1 -1 -1 -1 -0 0 1 1 1 1 1 1 2 2 2
6 4 2 -0 -2 -3 -5 -6 -6 -6 -6 -6 -6 -6 -5 -5 -5 -4 -4 -3 -3 -3 -3 -4 -4 -4 -3 -2 -1 -1 -1 -1 -1 -1 0 1 1 1 1 1 2 2 3
4 3 1 -1 -3 -4 -5 -6 -6 -6 -5 -5 -5 -5 -5 -5 -5 -5 -4 -4 -3 -3 -4 -4 -4 -4 -3 -2 -1 -1 -1 -1 -1 -1 -0 0 1 1 1 2 2 2 3